Weather History for Prestwick, United Kingdom

Change the Weather History Date:

Saturday, November 3, 2012

  Actual Average Record
Temperature  
Mean Temperature 40 °F -  
Max Temperature 46 °F 48 °F 60 °F (2005)
Min Temperature 35 °F 38 °F 28 °F (2008)
Degree Days  
Heating Degree Days 24    
Moisture  
Dew Point 35 °F    
Average Humidity 82    
Maximum Humidity 93    
Minimum Humidity 62    
Precipitation  
Precipitation 0.00 in - - ()
Sea Level Pressure  
Sea Level Pressure 29.21 in    
Wind  
Wind Speed 7 mph ()    
Max Wind Speed 14 mph    
Max Gust Speed -    
Visibility 6.2 miles    
Events Rain    
Averages and records for this station are not official NWS values.
T = Trace of Precipitation, MM = Missing Value Source: Averaged Metar Reports

Daily Weather History Graph

Daily Weather History Graph

Search for Another Location

Airport:

Trip Planner

Search our weather history database for the weather conditions in past years. The results will help you decide how hot, cold, wet, or windy it might be!

Date:

Astronomy

Nov. 03, 2012 Rise Set
Actual Time 7:28 AM GMT 4:34 PM GMT
Civil Twilight 6:49 AM GMT 5:13 PM GMT
Nautical Twilight 6:05 AM GMT 5:57 PM GMT
Astronomical Twilight 5:22 AM GMT 6:40 PM GMT
Moon 7:43 PM GMT (11/3) 11:43 AM GMT (11/3)
Length of Visible Light 10h 24m
Length of Day
9h 05m
Waning Gibbous, 82% of the Moon is Illuminated
Nov 3
Waning Gibbous
Nov 7
Last Quarter
Nov 13
New
Nov 20
First Quarter
Nov 28
Full

Hourly Weather History & Observations

Time (GMT) Temp. Windchill Dew Point Humidity Pressure Visibility Wind Dir Wind Speed Gust Speed Precip Events Conditions
12:50 AM 39.2 °F 35.9 °F 35.6 °F 87% 29.21 in 6.2 mi SE 4.6 mph - N/A   Scattered Clouds
1:50 AM 39.2 °F 35.0 °F 35.6 °F 87% 29.18 in 6.2 mi SE 5.8 mph - N/A   Scattered Clouds
2:50 AM 39.2 °F 35.9 °F 35.6 °F 87% 29.18 in 6.2 mi SSE 4.6 mph - N/A   Partly Cloudy
4:50 AM 39.2 °F 33.6 °F 35.6 °F 87% 29.18 in 6.2 mi SE 8.1 mph - N/A   Partly Cloudy
5:50 AM 37.4 °F 32.8 °F 35.6 °F 93% 29.18 in 6.2 mi SSE 5.8 mph - N/A   Partly Cloudy
6:20 AM 37.4 °F 32.1 °F 35.6 °F 93% 29.18 in 6.2 mi SSE 6.9 mph - N/A   Partly Cloudy
6:50 AM 37.4 °F 32.8 °F 35.6 °F 93% 29.18 in 6.2 mi South 5.8 mph - N/A   Partly Cloudy
7:20 AM 37.4 °F 32.8 °F 33.8 °F 87% 29.18 in 6.2 mi SSE 5.8 mph - N/A   Partly Cloudy
7:50 AM 35.6 °F 29.9 °F 33.8 °F 93% 29.18 in 6.2 mi SE 6.9 mph - N/A   Partly Cloudy
8:20 AM 37.4 °F 31.4 °F 33.8 °F 87% 29.18 in 6.2 mi SSE 8.1 mph - N/A   Partly Cloudy
8:50 AM 39.2 °F 32.5 °F 35.6 °F 87% 29.21 in 6.2 mi SSE 10.4 mph - N/A   Partly Cloudy
9:20 AM 41.0 °F 35.8 °F 35.6 °F 81% 29.21 in 6.2 mi SE 8.1 mph - N/A   Scattered Clouds
9:50 AM 42.8 °F 37.5 °F 35.6 °F 76% 29.21 in 6.2 mi SSE 9.2 mph - N/A   Scattered Clouds
10:20 AM 42.8 °F 37.0 °F 35.6 °F 76% 29.21 in 6.2 mi South 10.4 mph - N/A   Partly Cloudy
10:50 AM 42.8 °F 36.6 °F 37.4 °F 81% 29.21 in 6.2 mi South 11.5 mph - N/A   Partly Cloudy
11:20 AM 44.6 °F 39.7 °F 37.4 °F 76% 29.21 in 6.2 mi South 9.2 mph - N/A   Partly Cloudy
11:50 AM 44.6 °F 38.8 °F 37.4 °F 76% 29.21 in 6.2 mi South 11.5 mph - N/A   Partly Cloudy
12:20 PM 44.6 °F 38.4 °F 35.6 °F 71% 29.21 in 6.2 mi South 12.7 mph - N/A   Scattered Clouds
12:50 PM 46.4 °F 40.4 °F 35.6 °F 66% 29.21 in 6.2 mi South 13.8 mph - N/A   Scattered Clouds
1:20 PM 46.4 °F 41.1 °F 33.8 °F 62% 29.21 in 6.2 mi South 11.5 mph - N/A   Scattered Clouds
1:50 PM 46.4 °F 40.7 °F 35.6 °F 66% 29.21 in 6.2 mi South 12.7 mph - N/A   Scattered Clouds
2:20 PM 44.6 °F 38.1 °F 33.8 °F 66% 29.21 in 6.2 mi South 13.8 mph - N/A   Scattered Clouds
2:50 PM 44.6 °F 39.2 °F 35.6 °F 71% 29.21 in 6.2 mi South 10.4 mph - N/A   Scattered Clouds
3:20 PM 44.6 °F 38.4 °F 35.6 °F 71% 29.21 in 6.2 mi South 12.7 mph - N/A Rain Light Rain
3:50 PM 44.6 °F 38.4 °F 35.6 °F 71% 29.21 in 6.2 mi South 12.7 mph - N/A   Scattered Clouds
4:20 PM 42.8 °F 37.5 °F 35.6 °F 76% 29.21 in 6.2 mi South 9.2 mph - N/A   Scattered Clouds
4:50 PM 41.0 °F 35.2 °F 35.6 °F 81% 29.21 in 6.2 mi SSE 9.2 mph - N/A   Scattered Clouds
5:20 PM 41.0 °F 35.8 °F 35.6 °F 81% 29.21 in 6.2 mi SE 8.1 mph - N/A   Scattered Clouds
5:50 PM 39.2 °F 34.2 °F 33.8 °F 81% 29.24 in 6.2 mi SE 6.9 mph - N/A   Scattered Clouds
6:20 PM 39.2 °F 33.6 °F 33.8 °F 81% 29.24 in 6.2 mi SE 8.1 mph - N/A   Scattered Clouds
6:50 PM 39.2 °F 33.6 °F 33.8 °F 81% 29.24 in 6.2 mi SE 8.1 mph - N/A   Scattered Clouds
7:20 PM 39.2 °F 34.2 °F 33.8 °F 81% 29.24 in 6.2 mi SE 6.9 mph - N/A   Scattered Clouds
7:50 PM 35.6 °F 29.2 °F 32.0 °F 87% 29.24 in 6.2 mi ESE 8.1 mph - N/A   Scattered Clouds
8:20 PM 35.6 °F 29.9 °F 32.0 °F 87% 29.24 in 6.2 mi East 6.9 mph - N/A   Partly Cloudy
8:50 PM 35.6 °F 29.9 °F 32.0 °F 87% 29.24 in 6.2 mi East 6.9 mph - N/A   Partly Cloudy
9:20 PM 35.6 °F 29.9 °F 32.0 °F 87% 29.24 in 6.2 mi ESE 6.9 mph - N/A   Partly Cloudy
9:50 PM 35.6 °F 30.7 °F 32.0 °F 87% 29.24 in 6.2 mi East 5.8 mph - N/A   Partly Cloudy
10:20 PM 35.6 °F 30.7 °F 32.0 °F 87% 29.24 in 6.2 mi East 5.8 mph - N/A   Partly Cloudy
10:50 PM 35.6 °F 29.2 °F 32.0 °F 87% 29.24 in 6.2 mi ESE 8.1 mph - N/A   Scattered Clouds
11:20 PM 37.4 °F 31.4 °F 35.6 °F 93% 29.24 in 6.2 mi ESE 8.1 mph - N/A   Scattered Clouds
11:50 PM 37.4 °F 31.4 °F 35.6 °F 93% 29.24 in 6.2 mi ESE 8.1 mph - N/A   Scattered Clouds